GFSNW_925_temp_171.txt.gz
Temp
7 8 9 9 10 10 10 9 10 9 10 9 5 9 11 13 13 13 13 12 12 13 13 13 14 13 12 12 12 13 13 12 11 12 10 11 12 13 13 13 15 10 11 11
8 8 9 9 9 10 10 8 8 9 9 10 8 10 13 13 13 13 13 13 13 13 13 13 14 13 14 13 13 13 13 12 10 12 11 11 11 12 13 11 10 12 12 12
8 8 9 9 9 9 9 8 10 8 6 6 11 12 13 13 12 13 13 13 13 13 14 13 13 12 14 13 13 13 12 11 12 13 14 13 14 14 14 13 11 12 12 12
8 8 9 9 9 10 9 7 10 9 9 10 11 12 14 14 13 12 13 13 12 11 13 13 12 11 11 13 11 12 12 13 11 12 12 13 14 14 14 14 13 14 12 12
8 8 9 9 9 11 9 9 9 6 8 10 12 11 12 13 13 12 13 13 12 11 12 12 12 11 11 11 10 11 10 12 11 14 12 12 14 12 12 14 11 11 12 14
8 9 9 9 9 9 9 8 8 9 9 9 10 10 13 13 12 12 12 12 11 12 12 11 11 10 9 10 10 9 10 10 10 14 10 12 15 14 13 13 13 11 13 13
9 9 9 9 10 10 11 10 9 9 11 9 10 12 12 12 12 12 11 11 11 11 9 9 10 10 10 10 10 7 10 9 7 8 12 13 14 12 12 14 13 13 12 10
9 9 9 9 10 10 10 10 8 8 11 10 12 12 12 11 11 11 11 10 9 7 10 9 11 10 12 12 11 10 8 8 8 10 11 13 14 12 12 14 15 12 11 11
9 9 10 9 10 10 10 10 9 8 10 11 12 11 11 10 9 10 11 10 8 9 8 10 13 12 13 13 13 10 8 7 10 9 15 17 15 13 13 14 13 11 11 10
9 10 10 10 10 10 10 9 9 9 9 9 10 10 11 9 9 9 9 10 10 9 8 10 11 12 12 12 13 13 9 8 10 10 12 12 12 13 13 16 14 10 10 9
9 9 10 10 10 9 9 9 9 9 7 8 9 9 10 9 8 10 9 9 8 7 10 10 10 10 9 10 12 12 12 10 10 9 12 14 11 12 16 13 11 10 9 9
9 10 10 9 9 9 9 9 8 9 7 8 7 7 7 8 7 8 7 9 8 8 7 6 6 9 7 9 12 10 11 11 11 11 12 11 10 13 11 9 10 10 9 9
9 10 9 9 9 9 9 9 8 8 6 6 6 6 6 7 7 7 9 7 7 7 6 6 7 10 7 10 8 11 11 9 10 11 12 10 11 10 10 9 11 9 9 8
9 10 9 9 8 8 8 8 8 8 5 7 7 6 6 6 6 7 7 7 7 6 5 7 8 9 8 9 9 9 9 9 9 9 10 9 10 9 11 10 10 9 8 7
7 8 8 8 7 7 8 8 8 8 8 8 6 5 5 5 6 6 6 7 6 6 7 7 8 7 7 6 6 7 7 10 10 10 11 12 12 12 9 8 8 7 6 6
5 6 7 7 7 7 7 7 7 7 8 7 7 3 3 4 5 5 5 5 4 4 6 6 5 6 7 6 7 10 8 8 9 11 10 9 10 10 9 8 7 6 5 6
4 5 5 7 7 7 7 8 7 7 8 7 7 6 3 3 4 3 3 4 3 4 5 5 5 5 4 5 7 11 9 9 9 8 9 9 9 9 7 7 6 7 6 6
5 5 6 6 6 6 6 6 7 7 7 6 6 6 3 3 2 3 1 3 3 3 4 3 5 4 4 6 8 9 7 7 6 7 6 7 7 7 5 5 4 4 4 3
5 5 5 5 6 5 5 5 6 6 6 6 5 6 6 2 2 2 2 2 4 2 3 3 4 4 5 7 7 7 7 8 7 5 7 6 6 6 4 4 4 4 4 3
5 6 6 4 4 5 5 5 5 5 5 4 5 4 3 2 2 3 3 3 4 4 4 3 5 5 5 5 4 4 4 3 3 2 4 5 5 4 4 4 3 3 3 3
4 3 3 4 4 5 4 3 4 4 5 4 4 5 3 2 4 4 4 5 4 4 3 5 6 4 5 3 2 2 2 1 2 2 3 5 4 3 3 3 3 3 3 2
2 2 3 4 3 3 4 4 4 5 6 4 4 4 4 2 3 5 3 5 4 4 3 4 4 3 3 2 1 1 0 0 2 3 4 4 4 3 2 2 1 2 2 2
2 2 1 1 2 5 4 4 5 5 4 4 3 4 3 2 3 4 4 5 5 2 4 5 1 3 2 1 -0 -0 1 1 2 2 3 3 2 2 2 1 2 2 1 2
-1 -1 0 -1 0 2 3 2 3 2 2 3 3 3 3 3 4 4 5 3 3 3 2 1 -0 1 0 -1 -1 -0 -0 0 0 -2 -1 1 1 1 2 2 2 2 1 1
-1 -1 -2 -1 -1 0 0 -1 0 1 2 2 3 3 3 3 4 4 3 3 5 5 4 3 1 1 -1 -1 -1 -1 -1 -1 -1 -0 -3 -2 -0 0 0 1 2 2 2 1
-3 -1 -2 -0 -1 0 0 0 1 0 2 2 2 4 4 3 3 4 4 3 3 3 2 2 0 1 -0 -1 -1 -1 -1 -0 -0 -0 -0 -1 -1 -0 0 1 1 1 1 1
-5 -5 -2 -2 -1 -1 -1 1 1 1 2 2 2 2 2 0 3 3 3 2 2 0 -0 -1 1 1 -0 -1 -1 0 0 0 0 -0 -0 -1 -0 0 0 -0 1 1 1 1

GFSNW_925_temp_174.txt.gz
Temp
7 8 8 8 8 8 9 9 10 8 9 8 5 8 9 12 13 12 12 12 12 12 12 13 13 13 13 12 12 12 12 11 9 11 10 10 11 12 12 12 13 9 11 10
7 8 8 8 8 7 9 8 7 8 8 9 7 8 11 12 12 12 12 12 11 12 12 13 13 13 13 12 12 12 11 11 10 10 11 10 10 11 11 11 9 10 12 12
7 8 8 8 8 7 7 7 9 7 5 5 10 12 12 13 11 12 12 12 12 12 12 12 12 12 13 12 12 12 11 10 12 12 13 10 10 11 10 10 9 11 11 11
8 8 8 8 8 7 7 6 10 9 8 8 8 11 12 13 13 11 12 12 12 11 11 12 12 11 10 12 11 11 10 11 10 11 11 12 13 12 12 11 12 14 11 11
7 8 8 8 8 7 6 8 9 6 8 9 9 11 11 12 13 12 12 11 12 10 11 11 11 10 10 11 9 10 9 11 11 13 12 12 13 12 12 13 10 10 10 13
8 8 8 8 8 7 7 8 8 10 10 8 9 9 11 12 12 12 12 11 11 11 11 10 10 9 8 9 10 9 9 9 9 14 10 12 14 13 13 13 12 11 13 12
8 8 8 8 8 7 8 9 8 9 12 9 10 11 11 11 11 12 11 10 11 11 9 9 9 8 9 9 9 7 9 9 7 8 11 13 13 11 12 14 13 12 12 9
8 8 9 9 8 8 7 9 8 9 11 10 11 11 12 11 11 11 11 10 9 7 9 9 11 10 11 11 10 9 7 8 8 9 11 13 13 12 12 14 15 12 10 9
9 8 9 9 9 8 8 9 9 8 10 10 12 11 10 10 9 9 10 9 7 8 7 9 13 12 13 13 12 8 8 7 10 9 14 16 14 13 12 13 13 11 10 9
9 8 9 9 8 9 8 9 9 8 9 9 10 11 10 8 8 9 8 9 9 8 7 10 10 11 11 12 13 13 9 8 10 9 11 12 12 12 12 16 14 10 9 8
9 8 9 9 9 9 9 9 8 8 8 8 9 9 9 8 8 10 8 9 8 7 10 9 9 9 9 10 11 12 11 10 10 9 12 15 11 12 16 13 11 10 9 8
8 9 9 9 9 9 9 9 8 8 7 7 6 6 7 7 8 8 6 9 8 8 8 6 6 9 6 8 12 9 12 10 11 10 12 11 10 13 11 9 10 10 9 8
10 9 9 9 9 9 9 9 8 8 6 5 6 6 6 7 7 7 9 7 7 7 6 6 7 9 7 10 8 10 10 7 9 11 12 10 10 10 9 10 11 10 9 8
10 9 9 9 9 9 9 9 9 8 5 7 6 5 5 5 6 7 7 7 6 5 5 7 8 9 8 9 8 9 9 9 9 9 10 10 11 9 11 10 9 9 8 7
8 9 9 8 8 8 8 8 8 9 8 8 6 4 4 5 6 6 6 6 5 5 7 7 8 6 7 5 6 7 7 9 10 10 10 11 11 10 9 9 9 8 7 6
7 8 8 8 7 7 8 7 7 8 9 6 6 3 3 4 5 5 5 4 4 4 6 6 5 5 6 6 7 10 8 7 9 10 10 8 10 8 9 9 8 7 5 5
6 7 7 8 7 7 7 8 8 7 9 7 6 4 3 3 3 2 2 3 3 4 4 5 5 5 4 5 7 10 8 8 8 8 8 9 8 9 6 7 7 6 5 5
4 5 7 7 6 6 6 6 6 7 7 6 6 5 3 3 3 4 1 3 2 3 3 3 4 4 3 6 7 7 6 6 7 7 6 6 5 5 6 4 4 4 3 3
4 5 5 5 5 5 4 6 6 7 7 6 5 6 5 2 1 2 2 2 4 2 4 3 4 4 5 6 4 3 3 4 5 3 3 5 6 5 5 4 4 4 3 2
4 5 5 4 4 4 5 5 5 5 5 4 5 4 4 2 2 2 3 2 4 4 4 2 5 6 5 3 2 2 1 1 1 0 4 6 5 4 4 4 3 3 3 2
3 3 3 3 4 4 3 3 4 3 4 4 4 5 3 1 3 4 3 5 4 4 3 5 5 4 4 2 1 0 -0 -0 0 1 1 1 3 3 3 3 3 3 3 2
2 2 3 3 1 2 4 4 4 5 6 4 4 4 4 2 2 4 4 5 4 4 2 5 5 3 3 1 0 -1 -1 -1 1 1 1 2 2 2 2 2 1 2 2 2
3 1 1 1 2 4 4 5 5 5 4 3 3 4 3 3 3 4 4 5 5 2 4 5 2 2 2 -0 -1 -1 -1 -0 0 -0 1 2 2 2 2 1 1 1 1 1
-0 -1 1 1 2 2 2 3 3 2 2 3 3 3 3 3 4 4 5 3 2 2 1 2 1 2 1 -1 -1 -1 -1 -1 -1 -3 -2 -1 0 0 1 1 1 1 0 1
-2 -1 -1 -1 0 0 0 -0 1 1 2 2 3 3 3 4 5 4 3 2 3 3 3 2 1 1 -0 -0 -1 -1 -2 -2 -2 -1 -3 -3 -1 -0 -0 0 1 1 1 1
-4 -3 -2 -0 0 1 0 -0 1 0 2 1 2 4 4 4 4 4 2 3 5 2 2 1 0 1 -0 -1 -1 -1 -1 -1 -1 -0 -0 -1 -1 -0 -0 0 1 1 1 1
-6 -5 -2 -1 -1 -1 -1 -0 1 0 1 2 1 2 2 -1 1 2 2 1 1 -0 -1 -2 1 1 -0 -1 -1 -0 -0 -1 -0 -0 -0 -1 -1 -1 -0 -1 0 0 0 1

GFSNW_925_temp_177.txt.gz
Temp
8 8 7 7 7 8 8 7 8 8 8 8 5 7 8 11 12 10 11 11 10 11 12 12 12 12 12 11 11 11 10 11 10 11 11 10 10 11 11 12 12 10 10 12
9 8 7 7 7 8 8 7 6 7 8 8 7 8 10 11 12 11 11 11 10 11 12 12 12 13 13 11 10 10 11 10 10 12 11 10 10 11 10 10 10 11 12 13
9 8 8 7 7 7 8 5 7 6 5 5 9 11 11 12 10 12 11 11 11 11 11 10 11 12 12 11 11 12 11 10 12 12 13 12 10 10 10 11 10 11 11 11
8 9 8 8 7 7 7 4 7 8 7 7 7 10 11 12 13 10 11 11 10 11 11 11 10 11 10 12 10 10 10 10 9 11 11 11 12 12 9 10 11 11 11 11
8 8 9 8 7 7 6 6 7 5 7 8 7 10 10 10 12 11 11 10 11 9 9 11 12 10 10 10 9 10 8 10 10 11 12 11 12 12 10 10 11 10 9 12
7 8 8 8 8 7 6 7 7 7 9 7 9 9 11 10 11 11 11 10 11 9 8 9 9 9 8 9 9 8 8 9 9 12 10 12 13 11 11 12 11 10 12 12
6 7 8 8 8 7 8 8 7 7 9 7 9 11 10 10 10 12 11 10 10 10 8 9 8 8 7 7 7 6 8 8 7 8 11 12 13 11 12 13 13 11 11 9
6 7 7 8 9 8 7 8 7 6 9 8 9 10 11 10 10 10 11 9 8 6 9 9 10 9 11 10 9 6 5 7 9 9 10 13 13 12 11 13 14 11 10 8
5 6 7 8 9 8 7 7 8 6 8 10 12 10 10 9 9 9 9 8 7 7 6 9 12 12 12 12 12 7 7 7 9 9 14 16 14 12 11 12 13 10 9 8
5 6 7 8 10 8 7 8 8 8 7 8 9 10 10 9 9 9 8 8 8 7 7 10 10 11 10 12 13 12 9 8 10 9 11 12 12 12 11 15 14 9 8 8
5 6 7 8 9 8 6 8 8 9 6 8 8 9 8 8 9 10 8 8 7 6 9 9 9 9 8 9 10 12 11 10 10 8 12 14 11 12 15 12 10 10 9 8
6 6 7 9 8 8 6 7 7 8 6 7 6 6 7 7 8 8 6 10 8 8 7 6 6 8 5 7 12 9 12 10 11 11 12 10 10 12 11 9 10 10 9 7
5 7 7 8 8 7 7 8 7 7 6 5 5 6 6 7 7 7 8 6 7 7 6 6 7 10 7 9 8 10 10 7 9 11 12 10 10 10 9 10 11 10 9 7
7 7 8 8 8 7 8 8 8 9 6 8 6 5 5 5 6 7 7 6 6 5 5 7 7 9 7 8 9 8 9 7 9 9 10 9 11 9 10 10 9 9 7 7
7 7 8 8 8 6 8 9 8 9 9 7 5 4 4 4 5 6 6 6 5 5 6 6 8 6 6 4 6 7 6 9 10 11 10 10 10 10 9 10 10 8 7 6
7 8 8 8 7 6 9 7 7 8 9 6 6 2 3 4 5 4 4 4 3 4 6 5 4 4 6 6 7 9 7 6 7 9 9 8 8 8 8 9 9 8 6 6
8 8 8 8 7 7 7 8 8 9 9 7 5 5 2 3 3 2 2 3 2 4 4 5 5 5 4 5 7 8 5 4 5 6 6 8 8 8 5 6 6 6 5 5
7 8 8 7 6 6 7 6 7 8 7 6 6 5 3 3 3 3 1 3 2 2 3 2 4 3 3 6 6 4 3 3 6 4 4 5 4 3 4 4 4 5 3 2
5 6 6 6 5 5 5 6 6 7 8 6 5 7 6 2 2 2 2 2 4 1 3 3 4 4 5 5 3 3 2 2 2 2 2 3 5 4 5 5 4 4 3 2
3 5 3 4 4 5 6 6 5 5 5 4 5 4 4 3 2 3 3 2 4 5 4 3 5 5 4 3 2 1 1 1 0 0 3 4 4 3 3 4 3 3 2 2
1 2 2 3 4 4 3 4 5 4 5 4 5 5 3 1 4 4 3 3 2 3 4 5 5 4 3 1 1 -0 -1 -1 -0 0 0 0 1 1 2 2 3 3 2 2
1 1 2 2 2 2 4 4 4 5 5 4 4 4 4 2 2 4 4 4 4 3 2 5 5 4 2 0 0 -1 -2 -1 0 1 1 1 1 1 1 1 1 2 2 2
1 1 1 2 2 4 4 4 4 5 4 3 4 4 3 3 3 4 4 5 5 2 4 5 4 2 1 -0 -1 -1 -1 -0 0 -0 0 1 1 1 1 -0 0 1 0 1
-0 0 1 2 2 2 1 0 1 2 2 3 3 3 4 3 4 4 5 3 2 1 1 1 1 1 1 -1 -1 -1 -1 -1 -1 -3 -3 -2 -0 -0 0 1 1 1 -0 0
-1 -1 0 1 1 -0 -1 -1 1 1 2 2 3 3 3 4 4 4 3 2 1 3 2 1 -0 1 0 -0 -1 -1 -1 -2 -2 -1 -3 -3 -1 -1 -1 -0 0 1 1 1
-3 -2 -1 0 1 -1 -1 -0 1 0 1 1 2 4 4 4 4 4 4 3 3 2 1 0 0 1 0 -0 -1 -1 -1 -1 -1 -1 -1 -1 -1 -1 -1 -0 0 0 1 1
-5 -4 -2 -1 -1 -2 -2 -0 0 -0 1 1 1 2 2 1 3 2 2 2 1 0 -0 -1 0 0 -0 -1 -1 -1 -1 -1 -1 -1 -1 -1 -1 -1 -1 -2 -0 -0 -0 0

GFSNW_925_temp_183.txt.gz
Temp
7 8 9 9 8 8 8 11 13 8 8 12 15 15 15 13 15 15 15 15 16 16 17 17 17 17 17 16 16 14 15 15 14 16 16 15 15 14 15 13 15 16 15 16
6 7 8 8 7 8 9 12 14 8 9 14 15 15 14 14 15 15 15 15 15 16 16 16 17 17 17 15 15 16 16 15 14 17 14 13 13 15 15 13 15 15 15 16
6 6 7 8 8 7 8 12 13 9 9 13 13 16 16 15 14 15 15 15 15 15 15 16 16 16 16 15 15 12 13 15 15 16 17 16 15 14 14 15 13 15 14 16
5 6 6 7 8 7 8 11 13 15 11 10 12 14 15 15 15 14 14 15 15 16 16 16 16 16 16 15 13 13 14 14 15 15 15 15 15 15 15 13 15 15 18 17
5 5 6 6 6 7 7 11 12 13 13 15 14 13 15 15 16 15 15 14 16 16 15 17 17 16 16 16 14 14 14 14 15 13 16 15 14 15 16 15 15 16 16 16
5 5 5 5 6 7 7 8 10 11 13 15 15 15 15 16 16 16 16 15 15 15 16 17 17 16 16 15 14 15 14 14 14 15 16 15 16 16 16 16 16 16 16 18
5 5 5 5 5 6 7 8 10 11 12 13 15 15 16 16 15 16 14 14 15 13 13 13 13 14 14 14 14 14 14 14 14 14 17 17 16 15 15 16 16 16 16 16
5 5 5 5 5 6 5 7 7 9 10 13 14 15 15 15 15 14 14 14 14 13 13 14 15 15 14 14 14 14 13 14 14 14 17 19 17 15 16 16 17 17 16 16
4 4 5 5 5 5 5 5 6 8 9 11 14 15 16 15 16 15 13 10 11 11 13 14 16 18 17 16 13 12 12 13 13 16 15 18 17 16 15 16 18 17 16 16
4 4 4 4 4 5 5 5 6 6 8 10 14 14 15 16 17 16 13 10 10 11 13 14 16 18 15 17 16 13 13 13 13 16 16 19 16 15 15 17 17 16 17 16
3 3 3 4 4 4 4 4 5 6 8 9 13 13 13 14 15 16 13 12 11 10 13 15 16 16 17 16 17 16 17 16 16 16 16 17 15 15 16 16 15 15 16 16
3 3 4 4 4 4 4 4 5 6 6 7 9 11 11 10 11 14 12 14 13 14 14 13 14 14 14 17 19 14 15 16 17 17 17 15 14 14 14 14 15 15 16 15
3 3 3 5 5 5 4 4 5 6 6 6 7 9 9 8 8 8 14 13 14 12 12 13 13 14 14 16 16 16 15 13 15 15 15 15 15 14 14 14 14 13 13 14
3 2 3 6 5 6 5 4 5 6 7 6 8 8 7 6 6 7 8 10 9 11 11 12 13 14 12 15 13 14 14 13 15 15 15 14 13 13 13 13 12 12 12 12
2 2 5 6 7 7 6 5 5 6 7 7 8 6 5 5 6 7 8 10 11 12 11 11 13 11 12 12 11 14 13 15 15 16 14 15 14 13 12 13 13 12 12 11
2 3 6 6 7 7 5 5 5 5 7 5 6 6 6 5 7 8 9 10 10 11 12 11 10 8 11 12 13 13 12 11 11 13 11 11 12 11 10 11 11 11 11 12
2 4 5 5 5 5 6 7 6 6 7 6 5 5 4 6 6 6 7 7 8 10 9 10 10 9 10 11 12 10 10 10 10 9 9 11 11 11 10 9 9 8 8 9
2 5 5 5 5 6 6 6 7 6 6 6 6 5 4 4 5 6 6 7 8 8 8 8 9 7 9 10 10 8 8 8 9 8 7 7 8 8 9 8 8 9 9 8
2 6 6 5 5 5 5 6 5 5 6 5 5 6 6 2 4 4 4 7 7 6 8 9 8 9 9 10 8 7 6 6 6 6 6 8 7 7 7 7 8 8 8 8
2 5 4 3 4 5 6 5 5 5 6 5 6 4 5 4 4 6 6 7 7 7 7 6 7 9 7 6 5 5 5 4 4 3 6 5 5 6 6 6 6 7 7 7
1 1 3 2 4 4 3 4 4 4 5 5 4 6 5 3 6 6 6 7 7 8 7 8 7 8 6 5 5 4 4 3 3 3 3 4 4 4 5 6 5 5 5 5
-1 0 1 2 2 3 5 6 5 6 6 5 5 5 5 3 5 5 5 6 6 8 6 7 8 6 4 4 3 3 3 3 3 3 3 3 3 3 4 3 3 3 2 2
-0 0 2 3 3 5 6 6 6 6 5 4 5 5 5 4 6 5 6 7 7 6 7 8 7 4 4 3 3 2 2 3 2 2 2 2 2 2 2 3 2 3 3 2
1 2 2 3 2 3 2 4 4 2 4 4 4 5 5 4 6 6 7 5 6 7 7 7 5 4 3 2 2 3 2 2 2 -1 -1 -0 1 1 1 1 2 2 2 1
1 2 2 2 1 1 1 2 2 1 3 4 4 5 6 5 6 6 5 5 6 7 6 4 3 3 2 2 2 2 2 2 1 1 -1 -1 -1 1 1 0 1 1 1 1
0 1 1 1 1 1 1 1 1 0 2 3 4 5 6 5 6 6 6 7 7 5 4 3 3 2 2 2 2 2 2 2 2 1 -0 -1 -1 -0 -0 -0 0 0 1 1
-1 -0 -0 0 -0 0 0 1 0 0 2 3 4 5 4 4 5 4 3 4 3 3 3 3 3 3 2 2 1 1 1 1 0 -0 -1 -2 -2 -2 -1 -0 -0 -0 -0 0

GFSNW_925_temp_186.txt.gz
Temp
6 6 7 8 8 8 8 10 11 8 9 10 12 12 16 13 15 15 14 14 15 15 16 16 16 17 18 16 16 14 14 13 11 14 13 14 14 14 14 12 12 11 11 12
6 6 6 7 8 8 9 10 12 8 9 10 11 14 15 14 15 15 15 14 15 16 15 15 16 17 16 16 15 14 14 12 10 14 13 13 12 14 14 13 11 11 12 13
6 6 6 6 7 8 7 9 10 9 9 10 10 12 14 15 13 14 15 15 16 15 15 15 14 16 16 15 14 13 13 13 13 12 14 14 13 13 14 13 12 13 12 14
5 5 6 6 6 7 7 8 10 13 9 9 9 11 13 14 15 13 15 14 14 14 14 16 15 16 16 14 13 13 12 11 12 13 14 13 13 13 13 12 12 13 15 15
5 5 6 6 6 6 7 8 9 12 12 12 12 11 12 13 14 15 14 12 15 14 14 15 15 15 15 14 12 13 12 10 12 11 13 13 13 13 14 13 13 13 13 14
5 5 5 6 6 5 7 7 8 8 11 12 12 13 14 14 15 15 15 14 13 14 14 14 14 13 14 14 14 13 13 11 10 10 14 13 13 14 14 14 15 14 13 14
5 5 5 5 5 5 5 5 7 8 9 10 11 13 14 14 14 14 15 14 13 13 13 13 12 12 12 13 12 12 12 12 11 9 12 12 15 14 14 14 15 15 15 14
5 5 5 5 5 5 5 5 5 7 8 10 10 12 12 13 14 13 13 13 13 13 13 12 12 13 13 13 12 12 12 11 10 10 11 15 15 15 14 14 15 16 14 14
4 5 5 4 4 5 4 5 5 5 6 8 10 11 12 12 13 14 14 10 11 11 11 12 12 14 16 12 11 11 12 11 10 11 13 15 16 15 15 14 14 15 15 13
4 4 4 4 4 4 4 4 5 5 5 7 7 9 11 12 13 13 11 9 9 10 10 11 11 13 15 14 13 9 9 10 9 10 12 15 15 14 14 16 14 14 15 12
4 3 3 3 3 4 3 4 4 5 5 6 8 9 9 11 12 13 11 10 9 8 10 11 12 12 13 14 15 12 12 11 11 12 14 13 14 14 15 13 13 14 15 13
4 4 3 3 3 3 4 4 4 5 4 6 7 7 9 9 11 11 11 12 11 10 10 10 11 12 11 14 14 13 13 14 14 15 14 13 14 13 12 12 12 13 14 14
3 3 3 3 3 3 4 4 4 4 4 5 5 6 8 8 8 11 10 11 13 11 9 10 11 11 12 11 12 15 14 12 12 14 13 14 14 13 13 13 13 12 12 14
3 3 3 3 3 3 3 4 4 4 5 4 6 8 7 8 8 8 9 10 10 9 8 9 10 10 11 12 12 13 13 11 13 13 13 12 12 11 11 12 12 12 11 11
2 2 2 3 2 3 3 4 5 5 4 5 5 7 8 7 7 6 7 8 8 8 8 7 9 10 10 9 10 10 11 12 12 13 11 12 11 10 10 11 10 10 11 11
2 2 3 2 3 4 5 6 5 5 4 5 6 5 6 6 6 6 7 7 8 8 9 8 8 8 9 8 9 12 10 10 10 10 10 10 10 9 9 9 9 8 9 9
2 2 2 2 3 5 6 6 6 6 4 5 4 4 3 6 6 6 6 7 7 7 8 7 8 8 8 8 9 9 8 8 8 7 9 9 8 8 8 8 8 8 8 8
2 2 2 2 4 4 4 5 6 5 5 6 4 4 3 3 5 5 6 6 6 6 6 6 7 6 7 7 8 7 7 8 7 6 6 7 7 8 7 8 7 8 7 6
1 1 2 4 5 4 5 5 5 5 5 5 4 6 6 2 4 3 4 6 6 4 6 7 7 7 6 9 7 6 6 7 6 5 6 7 6 6 6 7 7 7 6 6
0 1 3 3 5 6 5 5 5 5 6 5 5 6 4 3 3 4 4 4 5 6 6 5 5 7 5 5 5 4 4 4 4 2 4 4 5 4 5 5 5 5 6 5
-0 0 2 2 4 5 4 4 4 4 4 5 5 5 4 2 5 5 5 6 5 7 6 6 7 6 4 4 3 2 2 3 3 3 3 3 3 3 4 4 4 4 4 4
-1 -1 -1 1 2 3 4 5 4 5 6 4 5 4 4 2 3 5 4 6 5 8 4 6 7 3 3 3 2 2 2 2 2 2 2 2 2 2 2 1 1 2 2 2
-0 -0 2 3 2 4 5 6 6 6 4 3 4 4 3 2 3 4 5 7 6 4 6 7 4 2 2 1 1 1 2 1 1 1 1 2 1 2 2 1 2 2 2 2
1 2 2 2 2 2 2 3 3 2 3 3 3 4 4 3 5 5 6 4 5 7 7 6 3 1 1 1 1 0 1 0 -1 -3 -2 -1 0 0 1 1 2 2 1 2
1 1 1 1 1 1 1 1 1 1 2 3 4 4 5 5 5 4 4 5 6 6 4 3 1 0 0 0 0 0 -0 -1 -2 -1 -3 -2 -0 0 -1 0 1 1 1 1
0 -0 1 1 0 -0 -0 0 1 0 2 2 4 5 4 4 5 5 4 4 5 4 2 1 0 -0 -0 -0 -0 0 1 0 -0 -1 -1 -2 -2 -1 -1 -0 0 0 1 0
-1 -1 -1 -1 -0 -0 -1 -1 -0 0 2 2 3 3 3 2 1 1 1 3 2 1 1 0 -1 -1 -0 -1 -1 -1 -1 -1 -2 -2 -2 -3 -2 -1 -0 -2 -1 -1 -0 -0